TimePST,TemperatureF,Dew PointF,Humidity,Sea Level PressureIn,VisibilityMPH,Wind Direction,Wind SpeedMPH,Gust SpeedMPH,PrecipitationIn,Events,Conditions,WindDirDegrees,DateUTC
12:56 AM,28.0,23.0,81,30.54,10.0,Calm,Calm,-,N/A,,Overcast,0,2013-01-15 08:56:00
1:56 AM,28.0,23.0,81,30.56,10.0,NNE,4.6,-,N/A,,Overcast,20,2013-01-15 09:56:00
2:23 AM,28.4,23.0,80,30.51,10.0,Calm,Calm,-,N/A,,Overcast,0,2013-01-15 10:23:00
2:56 AM,26.1,21.9,84,30.57,10.0,SE,3.5,-,N/A,,Partly Cloudy,130,2013-01-15 10:56:00
3:56 AM,25.0,21.0,85,30.56,10.0,ESE,5.8,-,N/A,,Clear,110,2013-01-15 11:56:00
4:56 AM,23.0,18.0,81,30.58,10.0,SE,3.5,-,N/A,,Mostly Cloudy,140,2013-01-15 12:56:00
5:03 AM,21.2,17.6,86,30.52,10.0,SE,3.5,-,N/A,,Overcast,130,2013-01-15 13:03:00
5:56 AM,24.1,17.1,75,30.61,10.0,SE,5.8,-,N/A,,Mostly Cloudy,130,2013-01-15 13:56:00
6:56 AM,23.0,16.0,74,30.62,10.0,SSE,4.6,-,N/A,,Mostly Cloudy,160,2013-01-15 14:56:00
7:09 AM,21.2,15.8,80,30.56,10.0,SE,4.6,-,N/A,,Scattered Clouds,140,2013-01-15 15:09:00
7:56 AM,25.0,15.1,66,30.64,10.0,SSE,8.1,-,N/A,,Clear,160,2013-01-15 15:56:00
8:56 AM,25.0,16.0,69,30.66,10.0,SE,4.6,-,N/A,,Clear,130,2013-01-15 16:56:00
9:56 AM,26.1,17.1,69,30.66,10.0,SSE,3.5,-,N/A,,Clear,150,2013-01-15 17:56:00
10:56 AM,28.9,18.0,64,30.68,10.0,SSE,3.5,-,N/A,,Clear,150,2013-01-15 18:56:00
11:56 AM,32.0,21.0,64,30.66,10.0,East,8.1,-,N/A,,Partly Cloudy,100,2013-01-15 19:56:00
12:56 PM,32.0,21.9,66,30.65,10.0,ESE,4.6,-,N/A,,Clear,110,2013-01-15 20:56:00
1:56 PM,32.0,21.9,66,30.65,10.0,Calm,Calm,-,N/A,,Clear,0,2013-01-15 21:56:00
2:56 PM,34.0,23.0,64,30.66,10.0,ENE,5.8,-,N/A,,Clear,60,2013-01-15 22:56:00
3:56 PM,30.0,21.9,72,30.66,10.0,SE,4.6,-,N/A,,Clear,130,2013-01-15 23:56:00
4:56 PM,28.0,21.0,75,30.67,10.0,Calm,Calm,-,N/A,,Clear,0,2013-01-16 00:56:00
5:56 PM,27.0,21.0,78,30.66,10.0,SSE,3.5,-,N/A,,Clear,160,2013-01-16 01:56:00
6:56 PM,24.1,19.0,81,30.67,10.0,SSE,4.6,-,N/A,,Clear,160,2013-01-16 02:56:00
7:56 PM,23.0,19.0,85,30.66,10.0,Calm,Calm,-,N/A,,Clear,0,2013-01-16 03:56:00
8:56 PM,26.1,21.0,81,30.65,10.0,Calm,Calm,-,N/A,,Clear,0,2013-01-16 04:56:00
9:56 PM,24.1,19.9,84,30.65,10.0,SSE,3.5,-,N/A,,Clear,150,2013-01-16 05:56:00
10:56 PM,24.1,19.9,84,30.64,10.0,Calm,Calm,-,N/A,,Clear,0,2013-01-16 06:56:00
11:56 PM,24.1,19.9,84,30.63,10.0,Calm,Calm,-,N/A,,Clear,0,2013-01-16 07:56:00